Glendale Luke AFB, AZ

8:50 AM MST on December 13, 2019 (GMT -0700)
Luke Air Force Base

Weather History for KLUF - August, 2019

Change the Weather History Date:

Thursday, August 15, 2019

  Actual Average Record
Temperature  
Mean Temperature 96 °F -  
Max Temperature 113 °F 104 °F 114 °F (2015)
Min Temperature 80 °F 72 °F 59 °F (1968)
Cooling Degree Days 32    
Growing Degree Days 46 (Base 50)    
Moisture  
Dew Point 35 °F    
Average Humidity 12    
Maximum Humidity 26    
Minimum Humidity 4    
Precipitation  
Precipitation 0.00 in - - ()
Sea Level Pressure  
Sea Level Pressure 29.76 in    
Wind  
Wind Speed 5 mph (WSW)    
Max Wind Speed 14 mph    
Max Gust Speed 22 mph    
Visibility 10 miles    
Events      
Averages and records for this station are not official NWS values.
T = Trace of Precipitation, MM = Missing Value Source: NWS Daily Summary

Daily Weather History Graph

Daily Weather History Graph

Search for Another Location

Airport or City:

Astronomy

Aug. 15, 2019 Rise Set
Actual Time 5:51 AM MST 7:15 PM MST
Civil Twilight 5:25 AM MST 7:42 PM MST
Nautical Twilight 4:53 AM MST 8:13 PM MST
Astronomical Twilight 4:21 AM MST 8:46 PM MST
Moon 7:45 PM MST (8/15) 5:52 AM MST (8/15)
Length of Visible Light 14h 16m
Length of Day
13h 24m
Full, 100% of the Moon is Illuminated
Aug 15
Full
Aug 23
Last Quarter
Aug 30
New
Sep 5
First Quarter
Sep 13
Full

Hourly Weather History & Observations

Time (MST) Temp. Dew Point Humidity Pressure Visibility Wind Dir Wind Speed Gust Speed Precip Events Conditions
12:58 AM 88.5 °F 42.3 °F 20% 29.77 in 10.0 mi NNW 5.8 mph - N/A   Clear
1:58 AM 86.7 °F 43.3 °F 22% 29.77 in 10.0 mi Calm Calm - N/A   Clear
2:58 AM 84.9 °F 45.1 °F 25% 29.78 in 10.0 mi ENE 3.5 mph - N/A   Clear
3:58 AM 82.4 °F 44.1 °F 26% 29.79 in 10.0 mi North 4.6 mph - N/A   Clear
4:58 AM 83.3 °F 39.2 °F 21% 29.81 in 10.0 mi SSE 6.9 mph - N/A   Clear
5:58 AM 80.2 °F 42.3 °F 26% 29.83 in 10.0 mi Calm Calm - N/A   Clear
6:58 AM 82.6 °F 41.0 °F 23% 29.85 in 10.0 mi NNW 6.9 mph - N/A   Clear
7:58 AM 89.4 °F 45.5 °F 22% 29.86 in 10.0 mi North 5.8 mph - N/A   Clear
8:58 AM 94.3 °F 44.2 °F 18% 29.86 in 10.0 mi ENE 4.6 mph - N/A   Clear
9:58 AM 99.3 °F 43.5 °F 15% 29.86 in 10.0 mi Calm Calm - N/A   Clear
10:58 AM 103.3 °F 44.8 °F 14% 29.84 in 10.0 mi Calm Calm - N/A   Clear
11:58 AM 106.3 °F 43.2 °F 12% 29.81 in 10.0 mi Calm Calm - N/A   Clear
12:58 PM 109.2 °F 37.8 °F 9% 29.79 in 10.0 mi Calm Calm - N/A   Partly Cloudy
1:09 PM 109.4 °F 35.6 °F 8% 29.79 in 10.0 mi SSW 4.6 mph - N/A   Light Drizzle
1:10 PM 109.4 °F 35.6 °F 8% 29.79 in 10.0 mi South 4.6 mph - N/A   Clear
1:58 PM 110.1 °F 28.4 °F 6% 29.76 in 10.0 mi South 6.9 mph - 0.00 in   Clear
1:59 PM 111.2 °F 28.4 °F 6% 29.76 in 10.0 mi South 10.4 mph - N/A   Partly Cloudy
2:00 PM 111.2 °F 28.4 °F 6% 29.76 in 10.0 mi South 11.5 mph - N/A   Light Drizzle
2:05 PM 113.0 °F 24.8 °F 5% 29.76 in 10.0 mi South 11.5 mph 19.6 mph N/A   Clear
2:58 PM 112.6 °F 20.5 °F 4% 29.73 in 10.0 mi WNW 13.8 mph 21.9 mph 0.00 in   Clear
3:20 PM 113.0 °F 24.8 °F 5% 29.72 in 10.0 mi WNW 13.8 mph 20.7 mph N/A   Clear
3:58 PM 112.8 °F 25.9 °F 5% 29.70 in 10.0 mi SW 12.7 mph - N/A   Clear
4:23 PM 113.0 °F 26.6 °F 5% 29.70 in 10.0 mi WNW 11.5 mph 17.3 mph N/A   Clear
4:58 PM 112.3 °F 25.5 °F 5% 29.69 in 10.0 mi WNW 10.4 mph - N/A   Clear
5:58 PM 111.9 °F 25.2 °F 5% 29.68 in 10.0 mi West 9.2 mph - N/A   Clear
6:58 PM 109.0 °F 27.7 °F 6% 29.67 in 10.0 mi SSW 9.2 mph - N/A   Clear
7:58 PM 103.8 °F 27.7 °F 7% 29.68 in 10.0 mi SW 6.9 mph - N/A   Clear
8:58 PM 98.6 °F 32.5 °F 10% 29.70 in 10.0 mi WSW 5.8 mph - N/A   Clear
9:58 PM 95.9 °F 39.0 °F 14% 29.72 in 10.0 mi NNW 5.8 mph - N/A   Clear
10:58 PM 96.6 °F 37.6 °F 13% 29.72 in 10.0 mi WSW 10.4 mph - N/A   Clear
11:58 PM 95.0 °F 38.3 °F 14% 29.73 in 10.0 mi WSW 3.5 mph - N/A   Clear